Las Cruces, NM

6:52 AM MDT on July 21, 2017 (GMT -0600)
Las Cruces International

Weather History for KLRU - October, 2012

Change the Weather History Date:

Wednesday, October 3, 2012

  Actual Average Record
Temperature  
Mean Temperature 73 °F -  
Max Temperature 92 °F 79 °F 92 °F (2012)
Min Temperature 54 °F 56 °F 48 °F (2008)
Cooling Degree Days 8    
Growing Degree Days 23 (Base 50)    
Moisture  
Dew Point 29 °F    
Average Humidity 21    
Maximum Humidity 42    
Minimum Humidity 9    
Precipitation  
Precipitation 0.00 in - - ()
Sea Level Pressure  
Sea Level Pressure 30.06 in    
Wind  
Wind Speed 9 mph (West)    
Max Wind Speed 23 mph    
Max Gust Speed 33 mph    
Visibility 10 miles    
Events      
Averages and records for this station are not official NWS values.
T = Trace of Precipitation, MM = Missing Value Source: NWS Daily Summary

Daily Weather History Graph

Daily Weather History Graph

Search for Another Location

Airport or City:

Trip Planner

Search our weather history database for the weather conditions in past years. The results will help you decide how hot, cold, wet, or windy it might be!

Date:

Astronomy

Oct. 03, 2012 Rise Set
Actual Time 7:03 AM MDT 6:49 PM MDT
Civil Twilight 6:38 AM MDT 7:13 PM MDT
Nautical Twilight 6:10 AM MDT 7:41 PM MDT
Astronomical Twilight 5:41 AM MDT 8:10 PM MDT
Moon 8:57 PM MDT (10/3) 10:15 AM MDT (10/3)
Length of Visible Light 12h 34m
Length of Day
11h 45m
Waning Gibbous, 88% of the Moon is Illuminated
Oct 3
Waning Gibbous
Oct 8
Last Quarter
Oct 15
New
Oct 21
First Quarter
Oct 29
Full

Hourly Weather History & Observations

Time (MDT) Temp. Dew Point Humidity Pressure Visibility Wind Dir Wind Speed Gust Speed Precip Events Conditions
12:15 AM 66.2 °F 31.8 °F 28% 30.01 in 10.0 mi West 9.2 mph - N/A   Clear
12:35 AM 65.8 °F 32.0 °F 28% 30.00 in 10.0 mi West 10.4 mph - N/A   Clear
12:55 AM 64.8 °F 32.0 °F 29% 30.00 in 10.0 mi West 10.4 mph - N/A   Clear
1:15 AM 65.3 °F 31.5 °F 28% 30.00 in 10.0 mi West 11.5 mph - N/A   Clear
1:35 AM 65.7 °F 31.1 °F 27% 30.01 in 10.0 mi NNW 8.1 mph - N/A   Clear
1:55 AM 69.6 °F 29.3 °F 22% 30.02 in 10.0 mi WNW 6.9 mph - N/A   Clear
2:15 AM 63.5 °F 30.2 °F 29% 30.02 in 10.0 mi NW 4.6 mph - N/A   Clear
2:35 AM 63.1 °F 30.2 °F 29% 30.02 in 10.0 mi NNW 5.8 mph - N/A   Clear
2:55 AM 62.6 °F 30.2 °F 30% 30.02 in 10.0 mi North 4.6 mph - N/A   Clear
3:15 AM 64.4 °F 29.8 °F 27% 30.02 in 10.0 mi Calm Calm - N/A   Clear
3:35 AM 60.1 °F 30.7 °F 33% 30.02 in 10.0 mi Calm Calm - N/A   Clear
3:55 AM 60.3 °F 30.9 °F 33% 30.02 in 10.0 mi Calm Calm - N/A   Clear
4:15 AM 61.2 °F 31.1 °F 32% 30.02 in 10.0 mi WSW 3.5 mph - N/A   Clear
4:35 AM 59.0 °F 30.9 °F 35% 30.03 in 10.0 mi Calm Calm - N/A   Clear
4:55 AM 59.5 °F 30.2 °F 33% 30.03 in 10.0 mi West 3.5 mph - N/A   Clear
5:15 AM 58.8 °F 31.1 °F 35% 30.04 in 10.0 mi West 6.9 mph - N/A   Clear
5:35 AM 57.2 °F 32.0 °F 38% 30.04 in 10.0 mi West 8.1 mph - N/A   Clear
5:55 AM 57.6 °F 31.3 °F 37% 30.04 in 10.0 mi West 9.2 mph - N/A   Clear
6:15 AM 54.9 °F 32.0 °F 42% 30.05 in 10.0 mi WNW 4.6 mph - N/A   Clear
6:35 AM 55.0 °F 32.0 °F 42% 30.05 in 10.0 mi West 6.9 mph - N/A   Clear
6:55 AM 56.8 °F 31.5 °F 38% 30.06 in 10.0 mi West 8.1 mph - N/A   Clear
7:15 AM 56.5 °F 32.0 °F 39% 30.06 in 10.0 mi WNW 5.8 mph - N/A   Clear
7:35 AM 56.5 °F 32.4 °F 40% 30.07 in 10.0 mi NW 6.9 mph - N/A   Clear
7:55 AM 60.3 °F 32.4 °F 35% 30.07 in 10.0 mi NW 5.8 mph - N/A   Clear
8:15 AM 63.5 °F 33.8 °F 33% 30.08 in 10.0 mi Calm Calm - N/A   Clear
8:35 AM 67.8 °F 33.8 °F 28% 30.08 in 10.0 mi Calm Calm - N/A   Clear
8:55 AM 71.1 °F 33.3 °F 25% 30.09 in 10.0 mi Calm Calm - N/A   Clear
9:15 AM 73.6 °F 31.5 °F 21% 30.10 in 10.0 mi Calm Calm - N/A   Clear
9:55 AM 75.7 °F 32.9 °F 21% 30.11 in 10.0 mi SE 3.5 mph - N/A   Clear
10:15 AM 77.0 °F 33.3 °F 20% 30.12 in 10.0 mi Calm Calm - N/A   Clear
10:35 AM 77.7 °F 32.4 °F 19% 30.11 in 10.0 mi ENE 4.6 mph - N/A   Clear
10:55 AM 78.6 °F 31.5 °F 18% 30.11 in 10.0 mi East 4.6 mph - N/A   Clear
11:15 AM 79.7 °F 31.3 °F 17% 30.11 in 10.0 mi East 3.5 mph - N/A   Clear
11:35 AM 81.3 °F 30.9 °F 16% 30.11 in 10.0 mi NE 3.5 mph - N/A   Clear
11:55 AM 84.0 °F 30.4 °F 14% 30.10 in 10.0 mi SW 3.5 mph - N/A   Clear
12:15 PM 84.7 °F 30.6 °F 14% 30.10 in 10.0 mi WNW 4.6 mph - N/A   Clear
12:35 PM 85.1 °F 30.4 °F 14% 30.09 in 10.0 mi NW 3.5 mph - N/A   Clear
1:15 PM 87.4 °F 30.0 °F 13% 30.07 in 10.0 mi Calm Calm - N/A   Clear
1:35 PM 89.1 °F 28.8 °F 11% 30.06 in 10.0 mi West 9.2 mph - N/A   Clear
1:55 PM 88.7 °F 28.8 °F 12% 30.05 in 10.0 mi SW 5.8 mph - N/A   Clear
2:15 PM 90.1 °F 28.2 °F 11% 30.04 in 10.0 mi West 13.8 mph 20.7 mph N/A   Clear
2:35 PM 90.1 °F 27.7 °F 11% 30.03 in 10.0 mi SW 5.8 mph 18.4 mph N/A   Clear
2:55 PM 92.3 °F 27.1 °F 10% 30.03 in 10.0 mi West 16.1 mph 24.2 mph N/A   Clear
3:15 PM 91.2 °F 26.1 °F 10% 30.03 in 10.0 mi WSW 20.7 mph 26.5 mph N/A   Clear
3:35 PM 91.4 °F 26.1 °F 10% 30.03 in 10.0 mi West 20.7 mph 32.2 mph N/A   Clear
3:55 PM 90.7 °F 25.3 °F 9% 30.03 in 10.0 mi West 18.4 mph 27.6 mph N/A   Clear
4:15 PM 91.0 °F 25.3 °F 9% 30.03 in 10.0 mi West 21.9 mph 26.5 mph N/A   Clear
4:35 PM 90.3 °F 26.4 °F 10% 30.03 in 10.0 mi West 18.4 mph 26.5 mph N/A   Clear
4:55 PM 89.8 °F 26.6 °F 10% 30.03 in 10.0 mi West 20.7 mph 26.5 mph N/A   Clear
5:15 PM 89.1 °F 26.2 °F 10% 30.03 in 10.0 mi West 18.4 mph 33.4 mph N/A   Clear
5:35 PM 88.2 °F 26.4 °F 11% 30.03 in 10.0 mi West 21.9 mph 28.8 mph N/A   Clear
5:55 PM 87.3 °F 26.6 °F 11% 30.04 in 10.0 mi West 23.0 mph 29.9 mph N/A   Clear
6:15 PM 86.4 °F 26.2 °F 11% 30.04 in 10.0 mi West 19.6 mph 29.9 mph N/A   Clear
6:35 PM 85.1 °F 26.4 °F 12% 30.05 in 10.0 mi West 20.7 mph 28.8 mph N/A   Clear
6:55 PM 83.3 °F 26.6 °F 13% 30.05 in 10.0 mi West 18.4 mph 23.0 mph N/A   Clear
7:15 PM 82.4 °F 26.4 °F 13% 30.05 in 10.0 mi West 18.4 mph 23.0 mph N/A   Clear
7:35 PM 81.1 °F 26.4 °F 13% 30.06 in 10.0 mi West 15.0 mph - N/A   Clear
7:55 PM 80.4 °F 26.2 °F 14% 30.06 in 10.0 mi West 16.1 mph - N/A   Clear
8:15 PM 78.8 °F 26.1 °F 14% 30.07 in 10.0 mi West 15.0 mph - N/A   Clear
8:35 PM 78.1 °F 26.1 °F 15% 30.08 in 10.0 mi West 13.8 mph - N/A   Clear
8:55 PM 76.3 °F 26.1 °F 16% 30.08 in 10.0 mi West 13.8 mph - N/A   Clear
9:15 PM 75.2 °F 26.1 °F 16% 30.09 in 10.0 mi West 13.8 mph - N/A   Clear
9:35 PM 76.1 °F 25.7 °F 15% 30.09 in 10.0 mi West 17.3 mph 20.7 mph N/A   Clear
10:15 PM 73.4 °F 26.6 °F 18% 30.10 in 10.0 mi West 15.0 mph - N/A   Clear
10:35 PM 74.1 °F 26.2 °F 17% 30.11 in 10.0 mi West 13.8 mph - N/A   Clear
10:55 PM 73.2 °F 26.4 °F 18% 30.11 in 10.0 mi West 13.8 mph - N/A   Clear
11:15 PM 71.1 °F 27.3 °F 20% 30.12 in 10.0 mi West 12.7 mph - N/A   Clear
11:35 PM 70.7 °F 27.5 °F 20% 30.12 in 10.0 mi West 13.8 mph - N/A   Clear
11:55 PM 69.8 °F 27.5 °F 21% 30.12 in 10.0 mi West 11.5 mph - N/A   Clear